Time,TemperatureF,DewpointF,PressureIn,WindDirection,WindDirectionDegrees,WindSpeedMPH,WindSpeedGustMPH,Humidity,HourlyPrecipIn,Conditions,Clouds,dailyrainin,SoftwareType,DateUTC
2013-04-13 00:02:00,29.8,28.3,29.61,WSW,246,0.0,0.0,94,0.00,,---,0.00,VWS V14.01,2013-04-13 05:02:00,
2013-04-13 00:07:00,29.8,28.3,29.61,WSW,252,0.0,5.0,94,0.00,,---,0.00,VWS V14.01,2013-04-13 05:07:00,
2013-04-13 00:12:00,29.7,28.5,29.61,West,279,3.0,5.0,95,0.00,,---,0.00,VWS V14.01,2013-04-13 05:12:00,
2013-04-13 00:17:00,29.7,28.5,29.61,SW,219,0.0,5.0,95,0.00,,---,0.00,VWS V14.01,2013-04-13 05:17:00,
2013-04-13 00:22:00,29.6,28.4,29.61,West,281,1.0,5.0,95,0.00,,---,0.00,VWS V14.01,2013-04-13 05:22:00,
2013-04-13 00:27:00,29.5,28.2,29.61,West,281,4.0,8.0,95,0.00,,---,0.00,VWS V14.01,2013-04-13 05:27:00,
2013-04-13 00:32:00,29.4,28.1,29.61,WNW,298,5.0,7.0,95,0.00,,---,0.00,VWS V14.01,2013-04-13 05:32:00,
2013-04-13 00:37:00,29.3,28.0,29.61,West,281,0.0,7.0,95,0.00,,---,0.00,VWS V14.01,2013-04-13 05:37:00,
2013-04-13 00:42:00,29.2,28.0,29.61,West,276,2.0,7.0,95,0.00,,---,0.00,VWS V14.01,2013-04-13 05:42:00,
2013-04-13 00:47:00,29.2,28.0,29.61,West,277,4.0,7.0,95,0.00,,---,0.00,VWS V14.01,2013-04-13 05:47:00,
2013-04-13 00:52:00,29.0,27.5,29.61,West,276,3.0,8.0,94,0.00,,---,0.00,VWS V14.01,2013-04-13 05:52:00,
2013-04-13 00:57:00,28.9,27.4,29.61,WNW,289,2.0,10.0,94,0.00,,---,0.00,VWS V14.01,2013-04-13 05:57:00,
2013-04-13 01:02:00,28.8,27.3,29.61,WNW,290,2.0,5.0,94,0.00,,---,0.00,VWS V14.01,2013-04-13 06:02:00,
2013-04-13 01:07:00,28.8,27.3,29.61,West,280,3.0,9.0,94,0.00,,---,0.00,VWS V14.01,2013-04-13 06:07:00,
2013-04-13 01:12:00,28.7,27.2,29.61,West,263,2.0,10.0,94,0.00,,---,0.00,VWS V14.01,2013-04-13 06:12:00,
2013-04-13 01:17:00,28.7,27.2,29.61,NW,310,5.0,10.0,94,0.00,,---,0.00,VWS V14.01,2013-04-13 06:17:00,
2013-04-13 01:22:00,28.6,26.8,29.61,WNW,294,3.0,11.0,93,0.00,,---,0.00,VWS V14.01,2013-04-13 06:22:00,
2013-04-13 01:27:00,28.5,26.7,29.61,NW,306,9.0,11.0,93,0.00,,---,0.00,VWS V14.01,2013-04-13 06:27:00,
2013-04-13 01:32:00,28.5,26.7,29.61,WNW,294,4.0,4.0,93,0.00,,---,0.00,VWS V14.01,2013-04-13 06:32:00,
2013-04-13 01:37:00,28.5,26.7,29.61,West,274,3.0,6.0,93,0.00,,---,0.00,VWS V14.01,2013-04-13 06:37:00,
2013-04-13 01:42:00,28.4,26.6,29.61,West,269,3.0,6.0,93,0.00,,---,0.00,VWS V14.01,2013-04-13 06:42:00,
2013-04-13 01:48:00,28.4,26.6,29.61,West,276,0.0,7.0,93,0.00,,---,0.00,VWS V14.01,2013-04-13 06:48:00,
2013-04-13 01:53:00,28.4,26.6,29.61,West,266,2.0,7.0,93,0.00,,---,0.00,VWS V14.01,2013-04-13 06:53:00,
2013-04-13 01:58:00,28.4,26.6,29.62,WSW,247,3.0,7.0,93,0.00,,---,0.00,VWS V14.01,2013-04-13 06:58:00,
2013-04-13 02:03:00,28.3,26.5,29.62,West,275,3.0,9.0,93,0.00,,---,0.00,VWS V14.01,2013-04-13 07:03:00,
2013-04-13 02:08:00,28.3,26.5,29.62,SW,220,1.0,9.0,93,0.00,,---,0.00,VWS V14.01,2013-04-13 07:08:00,
2013-04-13 02:13:00,28.3,26.5,29.62,West,265,4.0,9.0,93,0.00,,---,0.00,VWS V14.01,2013-04-13 07:13:00,
2013-04-13 02:18:00,28.3,26.5,29.62,WSW,244,4.0,9.0,93,0.00,,---,0.00,VWS V14.01,2013-04-13 07:18:00,
2013-04-13 02:23:00,28.2,26.4,29.62,West,266,5.0,9.0,93,0.00,,---,0.00,VWS V14.01,2013-04-13 07:23:00,
2013-04-13 02:28:00,28.2,26.4,29.62,WSW,246,5.0,9.0,93,0.00,,---,0.00,VWS V14.01,2013-04-13 07:28:00,
2013-04-13 02:33:00,28.1,26.3,29.62,West,275,5.0,6.0,93,0.00,,---,0.00,VWS V14.01,2013-04-13 07:33:00,
2013-04-13 02:39:00,28.0,26.5,29.62,WSW,241,2.0,6.0,94,0.00,,---,0.00,VWS V14.01,2013-04-13 07:39:00,
2013-04-13 02:44:00,28.0,26.2,29.62,South,183,4.0,9.0,93,0.00,,---,0.00,VWS V14.01,2013-04-13 07:44:00,
2013-04-13 02:49:00,27.9,26.1,29.62,WNW,299,6.0,9.0,93,0.00,,---,0.00,VWS V14.01,2013-04-13 07:49:00,
2013-04-13 02:54:00,27.8,26.0,29.62,WSW,258,1.0,9.0,93,0.00,,---,0.00,VWS V14.01,2013-04-13 07:54:00,
2013-04-13 02:59:00,27.8,26.0,29.62,WSW,239,2.0,9.0,93,0.00,,---,0.00,VWS V14.01,2013-04-13 07:59:00,
2013-04-13 03:04:00,27.7,25.9,29.62,WSW,245,4.0,7.0,93,0.00,,---,0.00,VWS V14.01,2013-04-13 08:04:00,
2013-04-13 03:09:00,27.8,26.0,29.62,WSW,238,2.0,7.0,93,0.00,,---,0.00,VWS V14.01,2013-04-13 08:09:00,
2013-04-13 03:14:00,27.7,25.9,29.62,WSW,258,7.0,9.0,93,0.00,,---,0.00,VWS V14.01,2013-04-13 08:14:00,
2013-04-13 03:19:00,27.6,25.8,29.62,SW,223,7.0,11.0,93,0.00,,---,0.00,VWS V14.01,2013-04-13 08:19:00,
2013-04-13 03:25:00,27.6,25.8,29.62,WSW,244,4.0,11.0,93,0.00,,---,0.00,VWS V14.01,2013-04-13 08:25:00,
2013-04-13 03:30:00,27.6,25.8,29.62,WSW,244,2.0,11.0,93,0.00,,---,0.00,VWS V14.01,2013-04-13 08:30:00,
2013-04-13 03:35:00,27.5,25.8,29.62,West,277,2.0,5.0,93,0.00,,---,0.00,VWS V14.01,2013-04-13 08:35:00,
2013-04-13 03:40:00,27.5,25.8,29.62,West,269,2.0,9.0,93,0.00,,---,0.00,VWS V14.01,2013-04-13 08:40:00,
2013-04-13 03:45:00,27.5,25.8,29.62,SW,218,4.0,9.0,93,0.00,,---,0.00,VWS V14.01,2013-04-13 08:45:00,
2013-04-13 03:50:00,27.4,25.4,29.62,WSW,256,1.0,10.0,92,0.00,,---,0.00,VWS V14.01,2013-04-13 08:50:00,
2013-04-13 03:55:00,27.3,25.3,29.62,WNW,290,5.0,10.0,92,0.00,,---,0.00,VWS V14.01,2013-04-13 08:55:00,
2013-04-13 04:00:00,27.3,25.3,29.62,WSW,254,3.0,5.0,92,0.00,,---,0.00,VWS V14.01,2013-04-13 09:00:00,
2013-04-13 04:05:00,27.3,25.3,29.62,West,280,4.0,7.0,92,0.00,,---,0.00,VWS V14.01,2013-04-13 09:05:00,
2013-04-13 04:10:00,27.3,25.3,29.62,West,273,3.0,11.0,92,0.00,,---,0.00,VWS V14.01,2013-04-13 09:10:00,
2013-04-13 04:15:00,27.3,25.3,29.62,West,265,2.0,11.0,92,0.00,,---,0.00,VWS V14.01,2013-04-13 09:15:00,
2013-04-13 04:20:00,27.2,25.2,29.63,WNW,283,4.0,11.0,92,0.00,,---,0.00,VWS V14.01,2013-04-13 09:20:00,
2013-04-13 04:25:00,27.2,25.2,29.63,West,277,4.0,11.0,92,0.00,,---,0.00,VWS V14.01,2013-04-13 09:25:00,
2013-04-13 04:30:00,27.1,24.8,29.63,West,259,6.0,10.0,91,0.00,,---,0.00,VWS V14.01,2013-04-13 09:30:00,
2013-04-13 04:35:00,27.1,24.8,29.63,West,277,10.0,12.0,91,0.00,,---,0.00,VWS V14.01,2013-04-13 09:35:00,
2013-04-13 04:40:00,27.1,24.8,29.63,West,277,3.0,12.0,91,0.00,,---,0.00,VWS V14.01,2013-04-13 09:40:00,
2013-04-13 04:46:00,27.0,24.7,29.63,WNW,298,10.0,12.0,91,0.00,,---,0.00,VWS V14.01,2013-04-13 09:46:00,
2013-04-13 04:51:00,27.0,24.7,29.63,WSW,244,6.0,12.0,91,0.00,,---,0.00,VWS V14.01,2013-04-13 09:51:00,
2013-04-13 04:56:00,27.0,24.7,29.63,West,279,4.0,12.0,91,0.00,,---,0.00,VWS V14.01,2013-04-13 09:56:00,
2013-04-13 05:01:00,26.9,24.6,29.64,West,261,3.0,6.0,91,0.00,,---,0.00,VWS V14.01,2013-04-13 10:01:00,
2013-04-13 05:07:00,26.9,24.6,29.64,WSW,238,5.0,11.0,91,0.00,,---,0.00,VWS V14.01,2013-04-13 10:07:00,
2013-04-13 05:11:00,26.8,24.5,29.63,WSW,251,5.0,11.0,91,0.00,,---,0.00,VWS V14.01,2013-04-13 10:11:00,
2013-04-13 05:17:00,26.7,24.4,29.64,West,261,3.0,11.0,91,0.00,,---,0.00,VWS V14.01,2013-04-13 10:17:00,
2013-04-13 05:22:00,26.6,24.3,29.64,West,278,2.0,11.0,91,0.00,,---,0.00,VWS V14.01,2013-04-13 10:22:00,
2013-04-13 05:27:00,26.5,24.2,29.64,NW,304,9.0,11.0,91,0.00,,---,0.00,VWS V14.01,2013-04-13 10:27:00,
2013-04-13 05:32:00,26.3,24.0,29.64,SSW,208,10.0,10.0,91,0.00,,---,0.00,VWS V14.01,2013-04-13 10:32:00,
2013-04-13 05:37:00,26.2,24.2,29.64,WNW,284,4.0,10.0,92,0.00,,---,0.00,VWS V14.01,2013-04-13 10:37:00,
2013-04-13 05:43:00,26.2,24.2,29.64,West,263,5.0,10.0,92,0.00,,---,0.00,VWS V14.01,2013-04-13 10:43:00,
2013-04-13 05:48:00,26.1,24.1,29.64,WSW,257,1.0,10.0,92,0.00,,---,0.00,VWS V14.01,2013-04-13 10:48:00,
2013-04-13 05:53:00,26.0,24.0,29.64,WNW,284,2.0,10.0,92,0.00,,---,0.00,VWS V14.01,2013-04-13 10:53:00,
2013-04-13 05:58:00,25.8,23.8,29.64,WSW,237,5.0,12.0,92,0.00,,---,0.00,VWS V14.01,2013-04-13 10:58:00,
2013-04-13 06:03:00,25.8,23.8,29.64,WSW,257,7.0,7.0,92,0.00,,---,0.00,VWS V14.01,2013-04-13 11:03:00,
2013-04-13 06:08:00,25.7,23.7,29.64,WSW,257,1.0,9.0,92,0.00,,---,0.00,VWS V14.01,2013-04-13 11:08:00,
2013-04-13 06:13:00,25.6,23.6,29.64,WSW,246,2.0,9.0,92,0.00,,---,0.00,VWS V14.01,2013-04-13 11:13:00,
2013-04-13 06:18:00,25.4,23.4,29.64,WSW,255,0.0,9.0,92,0.00,,---,0.00,VWS V14.01,2013-04-13 11:18:00,
2013-04-13 06:23:00,25.3,23.3,29.64,WSW,250,4.0,9.0,92,0.00,,---,0.00,VWS V14.01,2013-04-13 11:23:00,
2013-04-13 06:28:00,25.3,23.3,29.65,WSW,240,1.0,9.0,92,0.00,,---,0.00,VWS V14.01,2013-04-13 11:28:00,
2013-04-13 06:34:00,25.2,23.2,29.65,SW,231,2.0,6.0,92,0.00,,---,0.00,VWS V14.01,2013-04-13 11:34:00,
2013-04-13 06:39:00,25.3,23.6,29.65,WSW,252,2.0,8.0,93,0.00,,---,0.00,VWS V14.01,2013-04-13 11:39:00,
2013-04-13 06:44:00,25.2,23.5,29.65,WNW,283,7.0,8.0,93,0.00,,---,0.00,VWS V14.01,2013-04-13 11:44:00,
2013-04-13 06:49:00,25.2,23.5,29.65,WSW,247,2.0,8.0,93,0.00,,---,0.00,VWS V14.01,2013-04-13 11:49:00,
2013-04-13 06:54:00,25.2,23.5,29.65,WSW,254,5.0,8.0,93,0.00,,---,0.00,VWS V14.01,2013-04-13 11:54:00,
2013-04-13 06:59:00,25.2,23.5,29.65,SW,223,5.0,8.0,93,0.00,,---,0.00,VWS V14.01,2013-04-13 11:59:00,
2013-04-13 07:04:00,25.2,23.5,29.66,WSW,245,2.0,5.0,93,0.00,,---,0.00,VWS V14.01,2013-04-13 12:04:00,
2013-04-13 07:09:00,25.2,23.7,29.66,WSW,248,4.0,7.0,94,0.00,,---,0.00,VWS V14.01,2013-04-13 12:09:00,
2013-04-13 07:14:00,25.3,23.8,29.66,SW,236,3.0,7.0,94,0.00,,---,0.00,VWS V14.01,2013-04-13 12:14:00,
2013-04-13 07:19:00,25.3,23.8,29.67,WSW,245,6.0,8.0,94,0.00,,---,0.00,VWS V14.01,2013-04-13 12:19:00,
2013-04-13 07:24:00,25.4,23.9,29.67,WSW,246,2.0,8.0,94,0.00,,---,0.00,VWS V14.01,2013-04-13 12:24:00,
2013-04-13 07:29:00,25.4,23.9,29.67,WSW,243,2.0,8.0,94,0.00,,---,0.00,VWS V14.01,2013-04-13 12:29:00,
2013-04-13 07:34:00,25.5,24.0,29.67,WSW,257,2.0,7.0,94,0.00,,---,0.00,VWS V14.01,2013-04-13 12:34:00,
2013-04-13 07:39:00,25.7,24.5,29.67,West,279,5.0,8.0,95,0.00,,---,0.00,VWS V14.01,2013-04-13 12:39:00,
2013-04-13 07:44:00,25.7,24.2,29.68,West,261,9.0,11.0,94,0.00,,---,0.00,VWS V14.01,2013-04-13 12:44:00,
2013-04-13 07:49:00,25.7,24.2,29.68,WSW,238,5.0,11.0,94,0.00,,---,0.00,VWS V14.01,2013-04-13 12:49:00,
2013-04-13 07:54:00,25.8,24.3,29.68,SSW,203,2.0,11.0,94,0.00,,---,0.00,VWS V14.01,2013-04-13 12:54:00,
2013-04-13 07:59:00,25.9,24.2,29.68,WSW,253,2.0,11.0,93,0.00,,---,0.00,VWS V14.01,2013-04-13 12:59:00,
2013-04-13 08:04:00,25.9,24.2,29.68,SW,227,5.0,6.0,93,0.00,,---,0.00,VWS V14.01,2013-04-13 13:04:00,
2013-04-13 08:09:00,26.2,24.5,29.68,West,271,3.0,8.0,93,0.00,,---,0.00,VWS V14.01,2013-04-13 13:09:00,
2013-04-13 08:14:00,26.3,24.3,29.68,WSW,248,1.0,11.0,92,0.00,,---,0.00,VWS V14.01,2013-04-13 13:14:00,
2013-04-13 08:19:00,26.4,24.1,29.68,WSW,248,11.0,12.0,91,0.00,,---,0.00,VWS V14.01,2013-04-13 13:19:00,
2013-04-13 08:24:00,26.5,24.2,29.68,WSW,243,7.0,12.0,91,0.00,,---,0.00,VWS V14.01,2013-04-13 13:24:00,
2013-04-13 08:30:00,26.7,24.4,29.68,SW,233,3.0,12.0,91,0.00,,---,0.00,VWS V14.01,2013-04-13 13:30:00,
2013-04-13 08:35:00,27.0,24.7,29.68,WSW,239,2.0,10.0,91,0.00,,---,0.00,VWS V14.01,2013-04-13 13:35:00,
2013-04-13 08:40:00,27.1,24.6,29.68,WSW,253,2.0,10.0,90,0.00,,---,0.00,VWS V14.01,2013-04-13 13:40:00,
2013-04-13 08:45:00,27.3,24.8,29.68,West,265,3.0,10.0,90,0.00,,---,0.00,VWS V14.01,2013-04-13 13:45:00,
2013-04-13 08:50:00,27.3,24.8,29.68,West,260,3.0,10.0,90,0.00,,---,0.00,VWS V14.01,2013-04-13 13:50:00,
2013-04-13 08:55:00,27.4,24.6,29.68,SW,234,8.0,11.0,89,0.00,,---,0.00,VWS V14.01,2013-04-13 13:55:00,
2013-04-13 09:00:00,27.6,24.8,29.68,WSW,257,6.0,6.0,89,0.00,,---,0.00,VWS V14.01,2013-04-13 14:00:00,
2013-04-13 09:05:00,27.6,24.2,29.68,WSW,246,6.0,14.0,87,0.00,,---,0.00,VWS V14.01,2013-04-13 14:05:00,
2013-04-13 09:10:00,27.6,24.2,29.69,SW,227,8.0,15.0,87,0.00,,---,0.00,VWS V14.01,2013-04-13 14:10:00,
2013-04-13 09:15:00,27.6,24.0,29.68,SW,222,4.0,15.0,86,0.00,,---,0.00,VWS V14.01,2013-04-13 14:15:00,
2013-04-13 09:21:00,27.7,24.3,29.68,SW,236,4.0,15.0,87,0.00,,---,0.00,VWS V14.01,2013-04-13 14:21:00,
2013-04-13 09:26:00,28.3,25.2,29.68,WSW,242,2.0,15.0,88,0.00,,---,0.00,VWS V14.01,2013-04-13 14:26:00,
2013-04-13 09:31:00,28.4,24.8,29.68,SW,232,8.0,8.0,86,0.00,,---,0.00,VWS V14.01,2013-04-13 14:31:00,
2013-04-13 09:36:00,28.7,25.6,29.68,SW,215,11.0,11.0,88,0.00,,---,0.00,VWS V14.01,2013-04-13 14:36:00,
2013-04-13 09:41:00,28.5,24.9,29.68,SW,215,6.0,11.0,86,0.00,,---,0.00,VWS V14.01,2013-04-13 14:41:00,
2013-04-13 09:46:00,28.6,25.2,29.68,WSW,254,4.0,11.0,87,0.00,,---,0.00,VWS V14.01,2013-04-13 14:46:00,
2013-04-13 09:52:00,28.7,24.8,29.68,WSW,252,6.0,11.0,85,0.00,,---,0.00,VWS V14.01,2013-04-13 14:52:00,
2013-04-13 09:57:00,28.8,25.1,29.68,SW,215,4.0,11.0,86,0.00,,---,0.00,VWS V14.01,2013-04-13 14:57:00,
2013-04-13 10:02:00,29.1,25.4,29.68,WSW,246,2.0,10.0,86,0.00,,---,0.00,VWS V14.01,2013-04-13 15:02:00,
2013-04-13 10:07:00,29.3,25.4,29.68,WSW,257,4.0,11.0,85,0.00,,---,0.00,VWS V14.01,2013-04-13 15:07:00,
2013-04-13 10:12:00,29.2,25.0,29.68,SW,221,6.0,14.0,84,0.01,,---,0.01,VWS V14.01,2013-04-13 15:12:00,
2013-04-13 10:17:00,29.3,25.1,29.68,WSW,252,6.0,14.0,84,0.01,,---,0.01,VWS V14.01,2013-04-13 15:17:00,
2013-04-13 10:22:00,29.6,25.1,29.68,SSW,200,7.0,14.0,83,0.01,,---,0.01,VWS V14.01,2013-04-13 15:22:00,
2013-04-13 10:27:00,29.7,25.2,29.68,SW,234,5.0,14.0,83,0.01,,---,0.01,VWS V14.01,2013-04-13 15:27:00,
2013-04-13 10:33:00,30.2,25.7,29.68,South,180,3.0,10.0,83,0.01,,---,0.01,VWS V14.01,2013-04-13 15:33:00,
2013-04-13 10:38:00,30.5,26.0,29.69,WSW,239,9.0,12.0,83,0.01,,---,0.01,VWS V14.01,2013-04-13 15:38:00,
2013-04-13 10:43:00,30.3,25.5,29.69,SW,220,6.0,12.0,82,0.01,,---,0.01,VWS V14.01,2013-04-13 15:43:00,
2013-04-13 10:48:00,30.3,25.5,29.69,West,263,4.0,12.0,82,0.01,,---,0.01,VWS V14.01,2013-04-13 15:48:00,
2013-04-13 10:53:00,30.3,25.8,29.69,SW,230,6.0,13.0,83,0.01,,---,0.01,VWS V14.01,2013-04-13 15:53:00,
2013-04-13 10:58:00,30.1,25.9,29.69,WSW,247,7.0,13.0,84,0.01,,---,0.01,VWS V14.01,2013-04-13 15:58:00,
2013-04-13 11:03:00,30.2,26.2,29.68,SW,233,8.0,9.0,85,0.01,,---,0.01,VWS V14.01,2013-04-13 16:03:00,
2013-04-13 11:08:00,30.4,26.1,29.69,WSW,242,4.0,11.0,84,0.01,,---,0.01,VWS V14.01,2013-04-13 16:08:00,
2013-04-13 11:13:00,30.7,26.2,29.69,SW,216,3.0,13.0,83,0.01,,---,0.01,VWS V14.01,2013-04-13 16:13:00,
2013-04-13 11:18:00,30.8,26.3,29.69,SW,221,2.0,13.0,83,0.01,,---,0.01,VWS V14.01,2013-04-13 16:18:00,
2013-04-13 11:24:00,31.1,26.5,29.69,South,173,2.0,13.0,83,0.01,,---,0.01,VWS V14.01,2013-04-13 16:24:00,
2013-04-13 11:29:00,31.1,26.5,29.69,SW,229,6.0,14.0,83,0.01,,---,0.01,VWS V14.01,2013-04-13 16:29:00,
2013-04-13 11:34:00,31.4,26.5,29.69,SE,137,4.0,12.0,82,0.00,,---,0.01,VWS V14.01,2013-04-13 16:34:00,
2013-04-13 11:39:00,31.2,26.1,29.69,SW,220,9.0,13.0,81,0.00,,---,0.01,VWS V14.01,2013-04-13 16:39:00,
2013-04-13 11:44:00,30.9,26.1,29.69,WSW,240,10.0,13.0,82,0.00,,---,0.01,VWS V14.01,2013-04-13 16:44:00,
2013-04-13 11:49:00,31.3,27.0,29.69,WSW,238,4.0,13.0,84,0.00,,---,0.01,VWS V14.01,2013-04-13 16:49:00,
2013-04-13 11:54:00,31.2,26.4,29.70,SSW,208,15.0,18.0,82,0.00,,---,0.01,VWS V14.01,2013-04-13 16:54:00,
2013-04-13 11:59:00,31.3,26.8,29.70,South,174,5.0,18.0,83,0.00,,---,0.01,VWS V14.01,2013-04-13 16:59:00,
2013-04-13 12:04:00,31.2,26.6,29.70,SSW,202,2.0,11.0,83,0.01,,---,0.02,VWS V14.01,2013-04-13 17:04:00,
2013-04-13 12:09:00,31.2,26.9,29.70,WSW,253,10.0,13.0,84,0.01,,---,0.02,VWS V14.01,2013-04-13 17:09:00,
2013-04-13 12:15:00,31.6,27.3,29.70,South,179,3.0,13.0,84,0.01,,---,0.02,VWS V14.01,2013-04-13 17:15:00,
2013-04-13 12:20:00,31.9,27.0,29.70,South,186,6.0,13.0,82,0.01,,---,0.02,VWS V14.01,2013-04-13 17:20:00,
2013-04-13 12:25:00,31.9,26.7,29.70,SSW,206,5.0,19.0,81,0.01,,---,0.02,VWS V14.01,2013-04-13 17:25:00,
2013-04-13 12:30:00,31.9,26.4,29.70,WSW,243,12.0,12.0,80,0.01,,---,0.02,VWS V14.01,2013-04-13 17:30:00,
2013-04-13 12:35:00,32.1,26.6,29.70,SW,221,6.0,12.0,80,0.01,,---,0.02,VWS V14.01,2013-04-13 17:35:00,
2013-04-13 12:40:00,32.2,26.1,29.70,WSW,255,3.0,13.0,78,0.01,,---,0.02,VWS V14.01,2013-04-13 17:40:00,
2013-04-13 12:45:00,32.5,26.4,29.70,West,267,4.0,13.0,78,0.01,,---,0.02,VWS V14.01,2013-04-13 17:45:00,
2013-04-13 12:50:00,32.4,26.3,29.70,WSW,240,6.0,14.0,78,0.01,,---,0.02,VWS V14.01,2013-04-13 17:50:00,
2013-04-13 12:56:00,32.4,26.9,29.70,WSW,256,3.0,14.0,80,0.01,,---,0.02,VWS V14.01,2013-04-13 17:56:00,
2013-04-13 13:01:00,32.5,27.0,29.70,SW,215,4.0,8.0,80,0.00,,---,0.02,VWS V14.01,2013-04-13 18:01:00,
2013-04-13 13:06:00,32.2,26.7,29.70,SW,227,6.0,11.0,80,0.00,,---,0.02,VWS V14.01,2013-04-13 18:06:00,
2013-04-13 13:11:00,31.4,26.8,29.70,SSW,204,7.0,18.0,83,0.00,,---,0.02,VWS V14.01,2013-04-13 18:11:00,
2013-04-13 13:17:00,30.8,27.1,29.70,SSW,213,5.0,18.0,86,0.00,,---,0.02,VWS V14.01,2013-04-13 18:17:00,
2013-04-13 13:22:00,30.6,27.2,29.70,SW,216,7.0,18.0,87,0.00,,---,0.02,VWS V14.01,2013-04-13 18:22:00,
2013-04-13 13:27:00,30.4,27.5,29.70,SW,230,9.0,18.0,89,0.00,,---,0.02,VWS V14.01,2013-04-13 18:27:00,
2013-04-13 13:32:00,30.3,27.7,29.70,WSW,238,4.0,7.0,90,0.00,,---,0.02,VWS V14.01,2013-04-13 18:32:00,
2013-04-13 13:37:00,30.3,27.7,29.71,WSW,248,4.0,9.0,90,0.00,,---,0.02,VWS V14.01,2013-04-13 18:37:00,
2013-04-13 13:42:00,30.3,27.7,29.71,WSW,250,1.0,10.0,90,0.00,,---,0.02,VWS V14.01,2013-04-13 18:42:00,
2013-04-13 13:47:00,30.3,27.5,29.71,West,266,6.0,10.0,89,0.00,,---,0.02,VWS V14.01,2013-04-13 18:47:00,
2013-04-13 13:52:00,30.2,27.4,29.71,West,263,4.0,12.0,89,0.00,,---,0.02,VWS V14.01,2013-04-13 18:52:00,
2013-04-13 13:57:00,30.2,27.1,29.71,West,275,10.0,12.0,88,0.00,,---,0.02,VWS V14.01,2013-04-13 18:57:00,
2013-04-13 14:02:00,30.3,27.5,29.71,WSW,254,7.0,9.0,89,0.00,,---,0.02,VWS V14.01,2013-04-13 19:02:00,
2013-04-13 14:07:00,30.5,27.4,29.72,WSW,241,6.0,13.0,88,0.00,,---,0.02,VWS V14.01,2013-04-13 19:07:00,
2013-04-13 14:12:00,30.8,27.7,29.72,West,271,7.0,14.0,88,0.00,,---,0.02,VWS V14.01,2013-04-13 19:12:00,
2013-04-13 14:17:00,30.9,27.2,29.72,WSW,258,6.0,19.0,86,0.00,,---,0.02,VWS V14.01,2013-04-13 19:17:00,
2013-04-13 14:22:00,30.9,26.9,29.72,West,261,4.0,19.0,85,0.00,,---,0.02,VWS V14.01,2013-04-13 19:22:00,
2013-04-13 14:27:00,31.1,27.7,29.72,SW,214,9.0,19.0,87,0.01,,---,0.03,VWS V14.01,2013-04-13 19:27:00,
2013-04-13 14:32:00,31.1,27.4,29.72,West,261,5.0,15.0,86,0.01,,---,0.03,VWS V14.01,2013-04-13 19:32:00,
2013-04-13 14:37:00,31.7,28.0,29.72,SSW,193,11.0,18.0,86,0.01,,---,0.03,VWS V14.01,2013-04-13 19:37:00,
2013-04-13 14:42:00,31.9,27.6,29.72,WSW,257,6.0,19.0,84,0.01,,---,0.03,VWS V14.01,2013-04-13 19:42:00,
2013-04-13 14:47:00,32.5,27.9,29.72,SW,219,13.0,19.0,83,0.01,,---,0.03,VWS V14.01,2013-04-13 19:47:00,
2013-04-13 14:52:00,32.5,27.9,29.72,SSW,193,4.0,19.0,83,0.01,,---,0.03,VWS V14.01,2013-04-13 19:52:00,
2013-04-13 14:57:00,32.7,27.5,29.72,SW,221,2.0,19.0,81,0.01,,---,0.03,VWS V14.01,2013-04-13 19:57:00,
2013-04-13 15:02:00,32.6,27.4,29.72,SW,221,5.0,15.0,81,0.01,,---,0.03,VWS V14.01,2013-04-13 20:02:00,
2013-04-13 15:07:00,32.5,27.3,29.72,SW,218,8.0,15.0,81,0.01,,---,0.03,VWS V14.01,2013-04-13 20:07:00,
2013-04-13 15:12:00,32.4,27.5,29.72,South,191,10.0,15.0,82,0.01,,---,0.03,VWS V14.01,2013-04-13 20:12:00,
2013-04-13 15:17:00,32.4,27.5,29.72,SW,232,8.0,15.0,82,0.01,,---,0.03,VWS V14.01,2013-04-13 20:17:00,
2013-04-13 15:22:00,32.5,27.3,29.72,SW,223,11.0,16.0,81,0.02,,---,0.04,VWS V14.01,2013-04-13 20:22:00,
2013-04-13 15:27:00,32.8,27.6,29.72,SW,214,4.0,16.0,81,0.02,,---,0.04,VWS V14.01,2013-04-13 20:27:00,
2013-04-13 15:32:00,33.1,27.6,29.72,SW,226,4.0,9.0,80,0.01,,---,0.04,VWS V14.01,2013-04-13 20:32:00,
2013-04-13 15:37:00,32.7,26.9,29.72,SW,221,5.0,16.0,79,0.01,,---,0.04,VWS V14.01,2013-04-13 20:37:00,
2013-04-13 15:42:00,32.4,26.9,29.72,SW,234,9.0,16.0,80,0.01,,---,0.04,VWS V14.01,2013-04-13 20:42:00,
2013-04-13 15:47:00,32.4,27.2,29.72,SW,228,4.0,16.0,81,0.01,,---,0.04,VWS V14.01,2013-04-13 20:47:00,
2013-04-13 15:52:00,32.7,27.5,29.72,West,265,9.0,16.0,81,0.01,,---,0.04,VWS V14.01,2013-04-13 20:52:00,
2013-04-13 15:57:00,33.8,29.2,29.72,SSW,200,4.0,16.0,83,0.01,,---,0.04,VWS V14.01,2013-04-13 20:57:00,
2013-04-13 16:02:00,34.0,25.9,29.72,SSW,207,4.0,19.0,72,0.01,,---,0.04,VWS V14.01,2013-04-13 21:02:00,
2013-04-13 16:07:00,33.7,26.6,29.72,WSW,239,15.0,19.0,75,0.01,,---,0.04,VWS V14.01,2013-04-13 21:07:00,
2013-04-13 16:12:00,33.6,25.2,29.72,SW,215,17.0,19.0,71,0.01,,---,0.04,VWS V14.01,2013-04-13 21:12:00,
2013-04-13 16:17:00,33.5,25.5,29.72,WSW,257,14.0,19.0,72,0.01,,---,0.04,VWS V14.01,2013-04-13 21:17:00,
2013-04-13 16:22:00,33.5,25.5,29.72,WSW,245,7.0,19.0,72,0.01,,---,0.04,VWS V14.01,2013-04-13 21:22:00,
2013-04-13 16:27:00,33.8,25.4,29.72,WSW,238,7.0,19.0,71,0.01,,---,0.04,VWS V14.01,2013-04-13 21:27:00,
2013-04-13 16:32:00,33.8,25.1,29.72,SSW,213,6.0,17.0,70,0.00,,---,0.04,VWS V14.01,2013-04-13 21:32:00,
2013-04-13 16:37:00,33.8,25.1,29.72,SW,226,6.0,17.0,70,0.00,,---,0.04,VWS V14.01,2013-04-13 21:37:00,
2013-04-13 16:42:00,33.8,25.1,29.72,WSW,249,10.0,17.0,70,0.00,,---,0.04,VWS V14.01,2013-04-13 21:42:00,
2013-04-13 16:48:00,33.6,24.9,29.72,WSW,257,10.0,17.0,70,0.00,,---,0.04,VWS V14.01,2013-04-13 21:48:00,
2013-04-13 16:53:00,33.4,25.0,29.73,West,259,6.0,17.0,71,0.00,,---,0.04,VWS V14.01,2013-04-13 21:53:00,
2013-04-13 16:58:00,33.3,24.9,29.73,SW,236,8.0,17.0,71,0.00,,---,0.04,VWS V14.01,2013-04-13 21:58:00,
2013-04-13 17:03:00,33.0,25.0,29.73,West,263,4.0,11.0,72,0.00,,---,0.04,VWS V14.01,2013-04-13 22:03:00,
2013-04-13 17:07:00,33.0,25.3,29.73,WNW,296,7.0,12.0,73,0.00,,---,0.04,VWS V14.01,2013-04-13 22:07:00,
2013-04-13 17:12:00,33.0,25.3,29.73,WSW,244,10.0,12.0,73,0.00,,---,0.04,VWS V14.01,2013-04-13 22:12:00,
2013-04-13 17:17:00,33.0,25.3,29.73,WSW,239,5.0,14.0,73,0.00,,---,0.04,VWS V14.01,2013-04-13 22:17:00,
2013-04-13 17:22:00,32.9,25.2,29.73,West,264,6.0,14.0,73,0.00,,---,0.04,VWS V14.01,2013-04-13 22:22:00,
2013-04-13 17:27:00,32.9,25.2,29.74,WSW,251,7.0,14.0,73,0.00,,---,0.04,VWS V14.01,2013-04-13 22:27:00,
2013-04-13 17:32:00,33.0,25.6,29.73,WSW,241,12.0,12.0,74,0.00,,---,0.04,VWS V14.01,2013-04-13 22:32:00,
2013-04-13 17:37:00,32.8,25.8,29.74,WSW,254,6.0,13.0,75,0.00,,---,0.04,VWS V14.01,2013-04-13 22:37:00,
2013-04-13 17:42:00,32.8,25.4,29.74,WSW,244,6.0,13.0,74,0.00,,---,0.04,VWS V14.01,2013-04-13 22:42:00,
2013-04-13 17:47:00,32.9,25.9,29.74,WSW,244,7.0,13.0,75,0.00,,---,0.04,VWS V14.01,2013-04-13 22:47:00,
2013-04-13 17:52:00,32.9,25.5,29.74,WSW,255,4.0,13.0,74,0.00,,---,0.04,VWS V14.01,2013-04-13 22:52:00,
2013-04-13 17:57:00,32.9,25.5,29.74,West,263,4.0,13.0,74,0.00,,---,0.04,VWS V14.01,2013-04-13 22:57:00,
2013-04-13 18:02:00,32.8,25.4,29.74,SW,232,5.0,5.0,74,0.00,,---,0.04,VWS V14.01,2013-04-13 23:02:00,
2013-04-13 18:07:00,32.8,25.8,29.74,WSW,246,3.0,7.0,75,0.00,,---,0.04,VWS V14.01,2013-04-13 23:07:00,
2013-04-13 18:12:00,32.6,26.2,29.75,NW,311,7.0,10.0,77,0.00,,---,0.04,VWS V14.01,2013-04-13 23:12:00,
2013-04-13 18:17:00,32.5,26.1,29.75,NW,308,5.0,10.0,77,0.00,,---,0.04,VWS V14.01,2013-04-13 23:17:00,
2013-04-13 18:22:00,32.4,26.3,29.75,WNW,294,2.0,10.0,78,0.00,,---,0.04,VWS V14.01,2013-04-13 23:22:00,
2013-04-13 18:27:00,32.3,26.2,29.75,WNW,300,5.0,10.0,78,0.00,,---,0.04,VWS V14.01,2013-04-13 23:27:00,
2013-04-13 18:32:00,32.2,26.4,29.75,West,278,2.0,5.0,79,0.00,,---,0.04,VWS V14.01,2013-04-13 23:32:00,
2013-04-13 18:37:00,32.1,26.3,29.76,WNW,293,5.0,6.0,79,0.00,,---,0.04,VWS V14.01,2013-04-13 23:37:00,
2013-04-13 18:42:00,32.0,26.5,29.76,WNW,286,0.0,6.0,80,0.00,,---,0.04,VWS V14.01,2013-04-13 23:42:00,
2013-04-13 18:47:00,32.0,26.2,29.76,WNW,284,3.0,6.0,79,0.00,,---,0.04,VWS V14.01,2013-04-13 23:47:00,
2013-04-13 18:52:00,31.8,26.0,29.76,WNW,294,3.0,7.0,79,0.00,,---,0.04,VWS V14.01,2013-04-13 23:52:00,
2013-04-13 18:57:00,31.8,26.4,29.76,West,277,1.0,7.0,80,0.00,,---,0.04,VWS V14.01,2013-04-13 23:57:00,
2013-04-13 19:02:00,31.8,26.4,29.76,WNW,300,5.0,9.0,80,0.00,,---,0.04,VWS V14.01,2013-04-14 00:02:00,
2013-04-13 19:07:00,31.5,26.4,29.76,WNW,286,6.0,9.0,81,0.00,,---,0.04,VWS V14.01,2013-04-14 00:07:00,
2013-04-13 19:12:00,31.4,26.5,29.76,NW,311,4.0,9.0,82,0.00,,---,0.04,VWS V14.01,2013-04-14 00:12:00,
2013-04-13 19:17:00,31.2,26.4,29.76,WNW,299,5.0,10.0,82,0.00,,---,0.04,VWS V14.01,2013-04-14 00:17:00,
2013-04-13 19:22:00,30.9,26.4,29.76,WNW,290,3.0,10.0,83,0.00,,---,0.04,VWS V14.01,2013-04-14 00:22:00,
2013-04-13 19:27:00,30.7,26.2,29.76,West,281,2.0,10.0,83,0.00,,---,0.04,VWS V14.01,2013-04-14 00:27:00,
2013-04-13 19:32:00,30.7,26.5,29.76,WNW,284,0.0,2.0,84,0.00,,---,0.04,VWS V14.01,2013-04-14 00:32:00,
2013-04-13 19:37:00,30.7,26.5,29.76,WNW,284,0.0,4.0,84,0.00,,---,0.04,VWS V14.01,2013-04-14 00:37:00,
2013-04-13 19:42:00,30.7,26.5,29.76,WNW,302,2.0,4.0,84,0.00,,---,0.04,VWS V14.01,2013-04-14 00:42:00,
2013-04-13 19:47:00,30.6,26.4,29.76,WNW,302,4.0,5.0,84,0.00,,---,0.04,VWS V14.01,2013-04-14 00:47:00,
2013-04-13 19:52:00,30.4,26.1,29.76,WNW,298,2.0,7.0,84,0.00,,---,0.04,VWS V14.01,2013-04-14 00:52:00,
2013-04-13 19:57:00,30.3,26.1,29.76,WNW,298,2.0,7.0,84,0.00,,---,0.04,VWS V14.01,2013-04-14 00:57:00,
2013-04-13 20:02:00,30.4,26.4,29.76,WNW,298,1.0,3.0,85,0.00,,---,0.04,VWS V14.01,2013-04-14 01:02:00,
2013-04-13 20:07:00,30.3,26.1,29.77,WNW,298,0.0,3.0,84,0.00,,---,0.04,VWS V14.01,2013-04-14 01:07:00,
2013-04-13 20:12:00,30.3,26.1,29.77,WNW,298,0.0,3.0,84,0.00,,---,0.04,VWS V14.01,2013-04-14 01:12:00,
2013-04-13 20:17:00,30.3,26.1,29.77,WNW,298,0.0,3.0,84,0.00,,---,0.04,VWS V14.01,2013-04-14 01:17:00,
2013-04-13 20:22:00,30.3,26.1,29.77,WNW,298,0.0,3.0,84,0.00,,---,0.04,VWS V14.01,2013-04-14 01:22:00,
2013-04-13 20:27:00,30.2,26.0,29.77,WNW,298,0.0,3.0,84,0.00,,---,0.04,VWS V14.01,2013-04-14 01:27:00,
2013-04-13 20:32:00,30.2,26.0,29.77,WNW,298,0.0,0.0,84,0.00,,---,0.04,VWS V14.01,2013-04-14 01:32:00,
2013-04-13 20:37:00,30.1,25.9,29.78,WNW,298,0.0,0.0,84,0.00,,---,0.04,VWS V14.01,2013-04-14 01:37:00,
2013-04-13 20:42:00,30.1,25.9,29.78,WNW,298,0.0,3.0,84,0.00,,---,0.04,VWS V14.01,2013-04-14 01:42:00,
2013-04-13 20:47:00,30.0,25.8,29.78,WNW,298,0.0,3.0,84,0.00,,---,0.04,VWS V14.01,2013-04-14 01:47:00,
2013-04-13 20:52:00,29.9,26.0,29.78,WNW,298,0.0,3.0,85,0.00,,---,0.04,VWS V14.01,2013-04-14 01:52:00,
2013-04-13 20:57:00,29.8,25.9,29.78,WNW,298,0.0,3.0,85,0.00,,---,0.04,VWS V14.01,2013-04-14 01:57:00,
2013-04-13 21:03:00,29.8,25.9,29.78,WNW,298,0.0,0.0,85,0.00,,---,0.04,VWS V14.01,2013-04-14 02:03:00,
2013-04-13 21:08:00,29.7,25.8,29.78,WNW,298,0.0,0.0,85,0.00,,---,0.04,VWS V14.01,2013-04-14 02:08:00,
2013-04-13 21:13:00,29.7,25.8,29.79,WNW,298,0.0,0.0,85,0.00,,---,0.04,VWS V14.01,2013-04-14 02:13:00,
2013-04-13 21:18:00,29.7,25.8,29.79,WNW,298,0.0,0.0,85,0.00,,---,0.04,VWS V14.01,2013-04-14 02:18:00,
2013-04-13 21:23:00,29.7,26.0,29.79,WNW,298,0.0,0.0,86,0.00,,---,0.04,VWS V14.01,2013-04-14 02:23:00,
2013-04-13 21:28:00,29.6,25.6,29.80,WNW,298,0.0,0.0,85,0.00,,---,0.04,VWS V14.01,2013-04-14 02:28:00,
2013-04-13 21:33:00,29.6,25.9,29.80,WNW,298,0.0,0.0,86,0.00,,---,0.04,VWS V14.01,2013-04-14 02:33:00,
2013-04-13 21:38:00,29.5,25.8,29.80,WNW,298,0.0,0.0,86,0.00,,---,0.04,VWS V14.01,2013-04-14 02:38:00,
2013-04-13 21:43:00,29.5,25.8,29.80,WNW,298,0.0,0.0,86,0.00,,---,0.04,VWS V14.01,2013-04-14 02:43:00,
2013-04-13 21:48:00,29.4,25.7,29.80,WNW,297,0.0,0.0,86,0.00,,---,0.04,VWS V14.01,2013-04-14 02:48:00,
2013-04-13 21:53:00,29.3,25.4,29.81,WNW,297,0.0,1.0,85,0.00,,---,0.04,VWS V14.01,2013-04-14 02:53:00,
2013-04-13 21:58:00,29.3,25.6,29.81,WNW,297,0.0,1.0,86,0.00,,---,0.04,VWS V14.01,2013-04-14 02:58:00,
2013-04-13 22:03:00,29.2,25.5,29.81,WNW,297,0.0,0.0,86,0.00,,---,0.04,VWS V14.01,2013-04-14 03:03:00,
2013-04-13 22:08:00,29.2,25.8,29.81,WSW,243,0.0,3.0,87,0.00,,---,0.04,VWS V14.01,2013-04-14 03:08:00,
2013-04-13 22:13:00,29.2,25.8,29.81,WSW,243,0.0,3.0,87,0.00,,---,0.04,VWS V14.01,2013-04-14 03:13:00,
2013-04-13 22:18:00,29.2,25.8,29.81,WSW,243,0.0,3.0,87,0.00,,---,0.04,VWS V14.01,2013-04-14 03:18:00,
2013-04-13 22:23:00,29.1,25.7,29.81,SW,236,0.0,3.0,87,0.00,,---,0.04,VWS V14.01,2013-04-14 03:23:00,
2013-04-13 22:28:00,29.1,25.7,29.81,SW,232,0.0,3.0,87,0.00,,---,0.04,VWS V14.01,2013-04-14 03:28:00,
2013-04-13 22:33:00,29.0,25.6,29.81,SW,232,0.0,0.0,87,0.00,,---,0.04,VWS V14.01,2013-04-14 03:33:00,
2013-04-13 22:38:00,29.1,25.7,29.82,SW,232,0.0,0.0,87,0.00,,---,0.04,VWS V14.01,2013-04-14 03:38:00,
2013-04-13 22:43:00,29.0,25.6,29.81,SW,232,0.0,0.0,87,0.00,,---,0.04,VWS V14.01,2013-04-14 03:43:00,
2013-04-13 22:48:00,29.0,25.6,29.81,SW,232,0.0,0.0,87,0.00,,---,0.04,VWS V14.01,2013-04-14 03:48:00,
2013-04-13 22:53:00,29.1,25.7,29.81,SW,232,0.0,0.0,87,0.00,,---,0.04,VWS V14.01,2013-04-14 03:53:00,
2013-04-13 22:58:00,29.3,26.5,29.81,SW,232,0.0,0.0,89,0.00,,---,0.04,VWS V14.01,2013-04-14 03:58:00,
2013-04-13 23:00:00,29.6,26.8,29.81,SW,232,0.0,0.0,89,0.00,,---,0.04,VWS V14.01,2013-04-14 04:00:00,
2013-04-13 23:05:00,29.5,26.1,29.82,SW,232,0.0,0.0,87,0.00,,---,0.04,VWS V14.01,2013-04-14 04:05:00,
2013-04-13 23:10:00,29.5,26.7,29.82,SW,232,0.0,0.0,89,0.00,,---,0.04,VWS V14.01,2013-04-14 04:10:00,
2013-04-13 23:15:00,30.1,27.3,29.83,SW,232,0.0,0.0,89,0.00,,---,0.04,VWS V14.01,2013-04-14 04:15:00,
2013-04-13 23:20:00,29.8,26.1,29.83,SW,232,0.0,0.0,86,0.00,,---,0.04,VWS V14.01,2013-04-14 04:20:00,
2013-04-13 23:25:00,29.4,25.7,29.83,SW,232,0.0,0.0,86,0.00,,---,0.04,VWS V14.01,2013-04-14 04:25:00,
2013-04-13 23:30:00,29.1,25.4,29.83,SW,232,0.0,0.0,86,0.00,,---,0.04,VWS V14.01,2013-04-14 04:30:00,
2013-04-13 23:35:00,28.8,25.4,29.83,SW,232,0.0,0.0,87,0.00,,---,0.04,VWS V14.01,2013-04-14 04:35:00,
2013-04-13 23:40:00,28.8,25.4,29.83,SW,232,0.0,0.0,87,0.00,,---,0.04,VWS V14.01,2013-04-14 04:40:00,
2013-04-13 23:45:00,28.7,25.6,29.83,SW,232,0.0,0.0,88,0.00,,---,0.04,VWS V14.01,2013-04-14 04:45:00,
2013-04-13 23:50:00,28.7,25.6,29.84,SW,232,0.0,0.0,88,0.00,,---,0.04,VWS V14.01,2013-04-14 04:50:00,
2013-04-13 23:55:00,28.6,25.5,29.84,SW,229,0.0,1.0,88,0.00,,---,0.04,VWS V14.01,2013-04-14 04:55:00,